[[{"header":{"parameterUnit":"m.s-1","parameterCategory":1,"la1":30.2991,"la2":30.254,"lo1":-89.0895,"lo2":-89.0444,"dy":0.0017,"dx":0.0017,"nx":28,"ny":28,"refTime":"2023-11-02T09:00:00:Z","depth":0,"parameterNumber":2,"parameterNumberName":"U-component_of_WINDS"},"data":[0,0,0,0,0,0,0,0,0,0,0,0,0,0,0,0,0,0,0,0,0,0,0,0,0,0,0,0,0,0,0,0,0,0,0,0,0,0,0,0,0,0,0,0,0,0,0,0,0,0,0,0,0,0,0,0,0,0,-5.4714,-5.4715,0,-5.4815,-5.4817,-5.4818,-5.4709,-5.4705,-5.4701,-5.4697,-5.4804,-5.481,-5.4817,0,0,0,0,0,0,0,0,0,0,0,0,0,-5.4429,-5.4435,-5.4714,-5.4715,-5.4716,-5.4815,-5.4817,-5.4818,-5.471,-5.4705,-5.47,-5.4695,-5.4801,-5.4809,-5.4817,0,0,0,0,0,0,0,0,0,0,0,0,0,-5.4544,-5.4437,-5.4713,-5.4674,-5.4672,-5.4815,-5.4817,-5.4818,-5.4711,-5.4705,-5.4699,-5.4693,-5.4799,-5.4809,-5.4819,-5.5006,0,0,-5.4849,-5.4854,0,0,0,0,0,0,0,0,-5.4538,-5.4554,-5.4679,-5.4677,-5.4675,-5.4743,-5.4755,-5.4881,-5.4713,-5.4696,-5.4697,-5.469,-5.4789,-5.4799,-5.4832,-5.5011,-5.5016,-5.485,-5.4856,-5.4861,-5.4864,0,0,0,0,0,0,0,-5.453,-5.455,-5.4754,-5.4681,-5.4678,-5.4652,-5.4662,-5.4779,-5.4776,-5.4697,-5.469,-5.4703,-5.4786,-5.4823,-5.4834,-5.5017,-5.485,-5.4859,-5.4865,-5.4869,-5.5357,-5.5364,0,0,0,0,0,0,-5.4526,-5.4544,-5.4751,-5.4757,-5.4589,-5.4663,-5.4673,-5.4728,-5.4775,-5.4776,-5.4708,-5.4698,-5.4808,-5.4822,-5.4837,-5.5061,-5.4861,-5.487,-5.4876,-5.535,-5.5359,-5.5366,0,0,0,0,0,0,-5.452,-5.4545,-5.4747,-5.4648,-5.4672,-5.4674,-5.4736,-5.4733,-5.4769,-5.4783,-5.4782,-5.4746,-5.4804,-5.4823,-5.4965,-5.5064,-5.4875,-5.4884,-5.5342,-5.5353,-5.5362,-5.5511,0,0,0,0,0,0,-5.4512,-5.4544,-5.4614,-5.4651,-5.4678,-5.4873,-5.4742,-5.4739,-5.4786,-5.4773,-5.4818,-5.4819,-5.4801,-5.4951,-5.4975,-5.5074,-5.4892,-5.5333,-5.5347,-5.5359,-5.5497,-5.5525,-5.5549,0,0,0,0,0,-5.4503,-5.4652,-5.4619,-5.4644,-5.4766,-5.4878,-5.4894,-5.4869,-5.4795,-5.4866,-5.4876,-5.4818,-5.5049,-5.4966,-5.4993,-5.5096,-5.5327,-5.5343,-5.5358,-5.5486,-5.5519,-5.5548,0,0,0,0,0,0,-5.4628,-5.4656,-5.4619,-5.4785,-5.483,-5.486,-5.4949,-5.4905,-5.4972,-5.4958,-5.4924,-5.4935,-5.5087,-5.5105,-5.5013,-5.5281,-5.5176,-5.5198,-5.5264,-5.5296,-5.5321,-5.5314,-5.49,0,0,0,0,0,-5.4675,-5.4763,-5.4783,-5.4928,-5.4952,-5.4947,-5.4995,-5.4972,-5.5017,-5.5036,-5.5056,-5.5103,-5.5186,-5.5242,-5.5319,-5.5499,-5.5508,-5.5583,-5.5609,-5.563,-5.565,-5.5748,-5.5783,-5.5417,-5.5417,-5.5417,0,0,-5.4773,-5.4799,-5.4857,-5.4954,-5.4986,-5.5079,-5.4964,-5.5067,-5.5136,-5.5052,-5.5188,-5.5204,-5.5255,-5.5417,-5.549,-5.5438,-5.5753,-5.565,-5.5667,-5.5675,-5.5768,-5.5803,-5.5833,-5.5428,-5.5426,-5.5424,0,0,-5.4999,-5.5027,-5.5151,-5.5186,-5.5236,-5.5232,-5.5262,-5.5299,-5.5307,-5.5442,-5.5381,-5.5464,-5.5607,-5.5646,-5.5685,-5.5928,-5.5878,-5.5954,-5.6089,-5.6186,-5.6215,-5.624,-5.6329,-5.6361,-5.5973,-5.5973,-5.5974,0,-5.5115,-5.5252,-5.5221,-5.5329,-5.5375,-5.5302,-5.5428,-5.5463,-5.5537,-5.557,-5.551,-5.569,-5.5719,-5.589,-5.595,-5.5983,-5.6017,-5.5949,-5.6213,-5.6238,-5.6261,-5.6346,-5.6379,-5.5982,-5.5981,-5.5981,-5.598,0,-5.5393,-5.549,-5.5584,-5.5657,-5.5712,-5.5829,-5.5817,-5.5877,-5.5849,-5.5852,-5.5992,-5.6023,-5.6107,-5.6145,-5.6119,-5.6314,-5.6281,-5.6218,-5.6111,-5.6306,-5.6385,-5.6416,-5.5995,-5.5992,-5.5989,-5.5987,0,0,-5.5702,-5.5756,-5.5792,-5.5824,-5.5875,-5.5949,-5.6063,-5.6144,-5.6198,-5.6251,-5.6347,-5.647,-5.6413,-5.6457,-5.6434,-5.6519,-5.6712,-5.6446,-5.6446,-5.6496,-5.6932,-5.698,-5.7018,-5.6679,-5.6685,-5.6689,-5.6928,0,-5.5931,-5.6129,-5.6104,-5.6294,-5.6384,-5.6316,-5.6416,-5.6459,-5.6465,-5.6542,-5.6548,-5.6638,-5.6554,-5.658,-5.6661,-5.6671,-5.6799,-5.6654,-5.677,-5.6774,-5.6761,-5.7058,-5.711,-5.7333,-5.6958,-5.6963,-5.6967,0,-5.6225,-5.6289,-5.6488,-5.6526,-5.6562,-5.6652,-5.6725,-5.68,-5.6847,-5.6846,-5.6896,-5.6859,-5.6975,-5.6866,-5.7026,-5.6928,-5.6974,-5.6986,-5.6994,-5.7006,-5.6884,-5.708,-5.7404,-5.7438,-5.7015,-5.7011,-5.7008,0,-5.6433,-5.6568,-5.6705,-5.6735,-5.6782,-5.6848,-5.687,-5.6911,-5.6962,-5.7026,-5.7059,-5.7136,-5.7179,-5.724,-5.7226,-5.7147,-5.7391,-5.728,-5.7395,-5.7395,-5.745,-5.7447,-5.7789,-5.7477,-5.7477,-5.7476,-5.7475,0,-5.6693,-5.6817,-5.68,-5.6884,-5.7022,-5.6993,-5.7131,-5.7146,-5.7183,-5.727,-5.7216,-5.73,-5.7274,-5.7357,-5.7346,-5.7482,-5.7501,-5.7505,-5.7501,-5.7511,-5.7511,-5.7542,-5.7526,-5.7485,-5.7483,-5.7481,-5.748,0,-5.6949,-5.6942,-5.7087,-5.712,-5.7131,-5.7232,-5.726,-5.7341,-5.7342,-5.7453,-5.7477,-5.748,-5.7575,-5.7566,-5.7671,-5.7664,-5.7834,-5.781,-5.7818,-5.7813,-5.793,-5.792,-5.8304,-5.8354,-5.8009,-5.8012,-5.8015,0,-5.7116,-5.721,-5.7254,-5.7308,-5.7335,-5.7423,-5.7475,-5.745,-5.7506,-5.7568,-5.7642,-5.7731,-5.7801,-5.7955,-5.7968,-5.8049,-5.8028,-5.8157,-5.804,-5.8048,-5.8033,-5.8028,-5.8039,-5.8181,-5.8185,-5.8188,-5.8191,0,-5.7414,-5.7406,-5.7482,-5.7558,-5.7621,-5.768,-5.7732,-5.778,-5.7761,-5.7827,-5.7923,-5.7977,-5.8086,-5.8176,-5.8253,-5.8277,-5.8233,-5.8227,-5.8259,-5.8271,-5.8272,-5.8275,-5.7883,-5.8219,-5.8216,-5.8214,-5.8213,-5.8211,-5.7632,-5.7713,-5.7757,-5.7844,-5.7881,-5.7933,-5.801,-5.8021,-5.81,-5.8186,-5.8167,-5.8275,-5.8322,-5.8421,-5.8453,-5.8539,-5.8492,-5.8537,-5.8549,-5.8561,-5.8575,-5.8257,-5.8552,-5.8551,-5.8551,-5.855,-5.8549,0,-5.7929,-5.7953,-5.8034,-5.811,-5.8179,-5.8129,-5.8185,-5.8247,-5.8343,-5.8389,-5.846,-5.8571,-5.8658,-5.8678,-5.8762,-5.8826,-5.8808,-5.885,-5.8846,-5.8853,-5.8611,-5.8576,-5.8863,-5.8863,-5.8863,-5.8863,-5.8863,-5.8863,-5.8091,-5.8227,-5.8225,-5.8379,-5.8403,-5.8509,-5.8545,-5.8593,-5.863,-5.8756,-5.8829,-5.884,-5.8877,-5.8963,-5.9042,-5.9045,-5.908,-5.913,-5.9126,-5.89,-5.8869,-5.8839,-5.8807,-5.9138,-5.9138,-5.9361,-5.9363,-5.9364]},{"header":{"parameterUnit":"m.s-1","parameterCategory":1,"la1":30.2991,"la2":30.254,"lo1":-89.0895,"lo2":-89.0444,"dy":0.0017,"dx":0.0017,"nx":28,"ny":28,"refTime":"2023-11-02T09:00:00:Z","depth":0,"parameterNumber":3,"parameterNumberName":"V-component_of_WINDS"},"data":[0,0,0,0,0,0,0,0,0,0,0,0,0,0,0,0,0,0,0,0,0,0,0,0,0,0,0,0,0,0,0,0,0,0,0,0,0,0,0,0,0,0,0,0,0,0,0,0,0,0,0,0,0,0,0,0,0,0,-2.5177,-2.5176,0,-2.5122,-2.5121,-2.5121,-2.507,-2.5069,-2.5068,-2.5068,-2.5011,-2.5011,-2.501,0,0,0,0,0,0,0,0,0,0,0,0,0,-2.5236,-2.5235,-2.5177,-2.5176,-2.5175,-2.5122,-2.5121,-2.5121,-2.507,-2.5069,-2.5068,-2.5067,-2.5012,-2.5011,-2.501,0,0,0,0,0,0,0,0,0,0,0,0,0,-2.5199,-2.5235,-2.5177,-2.5144,-2.514,-2.5122,-2.5121,-2.512,-2.507,-2.5069,-2.5068,-2.5067,-2.5012,-2.5011,-2.5009,-2.502,0,0,-2.5005,-2.5005,0,0,0,0,0,0,0,0,-2.5201,-2.5197,-2.5149,-2.5146,-2.5142,-2.5102,-2.5121,-2.5087,-2.507,-2.5097,-2.5068,-2.5067,-2.5042,-2.5038,-2.503,-2.5017,-2.5015,-2.5005,-2.5004,-2.5004,-2.5003,0,0,0,0,0,0,0,-2.5203,-2.5199,-2.5155,-2.5149,-2.5144,-2.5131,-2.5125,-2.5115,-2.5075,-2.5094,-2.509,-2.5084,-2.504,-2.5032,-2.5028,-2.5014,-2.5005,-2.5004,-2.5003,-2.5003,-2.5005,-2.5005,0,0,0,0,0,0,-2.5211,-2.5201,-2.5157,-2.5153,-2.517,-2.5131,-2.5123,-2.5116,-2.5075,-2.5068,-2.5085,-2.5082,-2.5034,-2.503,-2.5026,-2.5034,-2.5004,-2.5003,-2.5002,-2.5004,-2.5005,-2.5006,0,0,0,0,0,0,-2.5213,-2.5208,-2.5159,-2.5176,-2.5169,-2.5131,-2.5122,-2.5115,-2.5106,-2.5069,-2.5061,-2.5084,-2.5033,-2.5028,-2.5021,-2.5031,-2.5002,-2.5001,-2.5003,-2.5004,-2.5005,-2.5051,0,0,0,0,0,0,-2.5215,-2.5209,-2.5213,-2.5177,-2.5168,-2.5156,-2.5123,-2.5115,-2.5104,-2.51,-2.5065,-2.5059,-2.5032,-2.5024,-2.502,-2.5029,-2.5,-2.5002,-2.5003,-2.5005,-2.5049,-2.5054,-2.5058,0,0,0,0,0,-2.5217,-2.5229,-2.5213,-2.5208,-2.5173,-2.5156,-2.5152,-2.5121,-2.5105,-2.5108,-2.5084,-2.506,-2.5031,-2.5023,-2.5019,-2.5028,-2.5001,-2.5003,-2.5005,-2.5046,-2.5053,-2.5058,0,0,0,0,0,0,-2.5267,-2.5223,-2.5206,-2.5206,-2.5185,-2.5148,-2.5151,-2.5129,-2.5112,-2.5109,-2.5071,-2.5064,-2.5061,-2.5044,-2.5036,-2.5034,-2.5012,-2.5014,-2.5046,-2.5052,-2.5056,-2.506,-2.4998,0,0,0,0,0,-2.5278,-2.5269,-2.5231,-2.5235,-2.5225,-2.519,-2.5182,-2.516,-2.5137,-2.5128,-2.5103,-2.5081,-2.5067,-2.5058,-2.5043,-2.5046,-2.5037,-2.5049,-2.5054,-2.5059,-2.506,-2.5057,-2.5062,-2.5012,-2.5012,-2.5012,0,0,-2.5301,-2.5276,-2.5273,-2.5244,-2.5226,-2.5216,-2.5183,-2.5175,-2.5167,-2.5127,-2.5118,-2.5099,-2.5072,-2.5069,-2.5067,-2.5055,-2.5072,-2.5061,-2.5065,-2.5064,-2.506,-2.5065,-2.5069,-2.5013,-2.5013,-2.5013,0,0,-2.5338,-2.5319,-2.5319,-2.53,-2.5272,-2.5248,-2.5248,-2.5214,-2.5199,-2.519,-2.5158,-2.5149,-2.5126,-2.5107,-2.5094,-2.5122,-2.5098,-2.5118,-2.5144,-2.5142,-2.5146,-2.5149,-2.5157,-2.5161,-2.512,-2.512,-2.512,0,-2.537,-2.5355,-2.5322,-2.5315,-2.5302,-2.5264,-2.5263,-2.5247,-2.5216,-2.5208,-2.5195,-2.5163,-2.5143,-2.5134,-2.514,-2.5132,-2.513,-2.5122,-2.5148,-2.5151,-2.5153,-2.5161,-2.5164,-2.5122,-2.5122,-2.5122,-2.5121,0,-2.5394,-2.5384,-2.5388,-2.5357,-2.5345,-2.5342,-2.5307,-2.5299,-2.5277,-2.5255,-2.5245,-2.5218,-2.5196,-2.5193,-2.5172,-2.5181,-2.5174,-2.5155,-2.5132,-2.5161,-2.5167,-2.517,-2.5126,-2.5125,-2.5124,-2.5123,0,0,-2.5462,-2.5412,-2.5414,-2.5398,-2.5364,-2.5355,-2.5349,-2.5327,-2.532,-2.5299,-2.5292,-2.5272,-2.5254,-2.5239,-2.5216,-2.5215,-2.5236,-2.5196,-2.5194,-2.5203,-2.5241,-2.5254,-2.5258,-2.522,-2.5221,-2.5221,-2.5242,0,-2.5491,-2.5478,-2.5447,-2.5443,-2.5432,-2.5395,-2.5389,-2.5367,-2.5345,-2.5332,-2.5308,-2.5294,-2.5272,-2.5263,-2.526,-2.5234,-2.5243,-2.5232,-2.5212,-2.5211,-2.5219,-2.5262,-2.5276,-2.5298,-2.5245,-2.5245,-2.5245,0,-2.5524,-2.5505,-2.55,-2.5464,-2.5458,-2.5453,-2.5429,-2.5418,-2.5391,-2.5375,-2.5359,-2.5333,-2.5323,-2.5302,-2.5287,-2.528,-2.527,-2.5256,-2.5256,-2.5252,-2.523,-2.5257,-2.5304,-2.5307,-2.5249,-2.5249,-2.5249,0,-2.5571,-2.5544,-2.5537,-2.5525,-2.5484,-2.5481,-2.5464,-2.5436,-2.5424,-2.5403,-2.5395,-2.5373,-2.5361,-2.5345,-2.5313,-2.5301,-2.53,-2.5278,-2.5286,-2.5286,-2.5287,-2.5287,-2.5331,-2.5282,-2.5282,-2.5282,-2.5282,0,-2.5607,-2.5605,-2.5557,-2.5553,-2.5549,-2.5513,-2.551,-2.5488,-2.5464,-2.5454,-2.5421,-2.5412,-2.5371,-2.5357,-2.5332,-2.5322,-2.5317,-2.5303,-2.5296,-2.5305,-2.5307,-2.5297,-2.5295,-2.5283,-2.5283,-2.5283,-2.5283,0,-2.5659,-2.5627,-2.5617,-2.5578,-2.5568,-2.5566,-2.5533,-2.5526,-2.5502,-2.5489,-2.5484,-2.5446,-2.5428,-2.5394,-2.5367,-2.535,-2.5344,-2.5334,-2.5353,-2.5349,-2.5358,-2.5357,-2.5397,-2.54,-2.5351,-2.5351,-2.5352,0,-2.5683,-2.5681,-2.5641,-2.5632,-2.5615,-2.5601,-2.5588,-2.5553,-2.5541,-2.5509,-2.5506,-2.5485,-2.5466,-2.5438,-2.5407,-2.5385,-2.5372,-2.5388,-2.5369,-2.5377,-2.5371,-2.5371,-2.5369,-2.5392,-2.5393,-2.5393,-2.5394,0,-2.5729,-2.5713,-2.5696,-2.5673,-2.5659,-2.564,-2.5618,-2.5612,-2.5571,-2.5559,-2.554,-2.5525,-2.5496,-2.5475,-2.5448,-2.5429,-2.5404,-2.54,-2.54,-2.5409,-2.542,-2.5412,-2.5364,-2.5399,-2.5398,-2.5398,-2.5398,-2.5398,-2.5767,-2.5762,-2.5733,-2.5714,-2.5694,-2.5675,-2.5666,-2.564,-2.5624,-2.5597,-2.5577,-2.5558,-2.5529,-2.5491,-2.5473,-2.5457,-2.5446,-2.5447,-2.5447,-2.5447,-2.545,-2.5423,-2.5452,-2.5452,-2.5452,-2.5452,-2.5452,0,-2.5809,-2.5788,-2.5772,-2.5743,-2.5728,-2.5706,-2.5681,-2.5669,-2.5654,-2.5629,-2.5611,-2.5587,-2.5566,-2.5533,-2.5509,-2.5502,-2.549,-2.5497,-2.5497,-2.5492,-2.5463,-2.5464,-2.5507,-2.5507,-2.5507,-2.5507,-2.5507,-2.5507,-2.5829,-2.5819,-2.58,-2.5779,-2.5757,-2.5739,-2.5726,-2.5707,-2.5687,-2.5663,-2.5645,-2.5623,-2.5595,-2.5568,-2.5547,-2.5538,-2.5529,-2.554,-2.5527,-2.55,-2.5495,-2.549,-2.5491,-2.5539,-2.5539,-2.5557,-2.5558,-2.5558]}]]